This demonstration page uses our WeatherBlox Daily Observations layout. Learn more.

Left ArrowRight Arrow

39.08367, -84.50855

Hourly Observations for September 20, 2017

Temp ( °F °C ) Dew Point ( °F °C ) Humidity (%) Winds ( mph kmh ) Pressure ( in mb ) Visibility ( mi km ) Precip ( " mm )
12:08 am 00:08 Mostly Cloudy with Fog 65 18.3 65 18.3 100 100 N N/A 29.94 1014 0 0 N/A
12:18 am 00:18 Clear with Mist and Fog 67 19.4 67 19.4 100 100 N N/A 29.94 1014 1 1 N/A
12:24 am 00:24 Mostly Cloudy with Mist and Fog 65 18.3 65 18.3 100 100 N N/A 29.94 1014 1 2 N/A
12:28 am 00:28 Mostly Cloudy with Fog 63 17.2 63 17.2 100 100 N N/A 29.94 1014 1 1 N/A
12:37 am 00:37 Mostly Cloudy with Fog 64 17.8 64 17.8 100 100 SE 3 6 29.94 1014 0 0 N/A
12:46 am 00:46 Mostly Cloudy with Mist and Fog 64 17.8 64 17.8 100 100 N N/A 29.94 1014 1 2 N/A
12:53 am 00:53 Mostly Cloudy with Fog 64 17.8 64 17.8 100 100 N N/A 29.96 1015 1 1 N/A
1:00 am 01:00 Mostly Cloudy with Fog 63 17.2 63 17.2 100 100 N N/A 29.94 1014 0 0 N/A
1:53 am 01:53 Mostly Cloudy with Fog 64 17.8 64 17.8 100 100 N N/A 29.97 1015 0 0 N/A
2:53 am 02:53 Mostly Cloudy with Fog 65 18.3 65 18.3 100 100 N N/A 29.96 1015 0 0 N/A
3:53 am 03:53 Mostly Cloudy with Fog 65 18.3 65 18.3 100 100 N N/A 29.96 1015 0 0 N/A
4:53 am 04:53 Mostly Cloudy with Fog 64 17.8 64 17.8 100 100 N N/A 29.97 1015 0 0 N/A
5:53 am 05:53 Mostly Cloudy with Fog 63 17.2 63 17.2 100 100 N N/A 29.98 1015 0 0 N/A
6:53 am 06:53 Mostly Cloudy with Fog 63 17.2 63 17.2 100 100 N N/A 30.00 1016 0 0 N/A
7:53 am 07:53 Mostly Cloudy with Fog 63 17.2 63 17.2 100 100 N N/A 30.03 1017 0 0 N/A
8:21 am 08:21 Mostly Cloudy with Fog 63 17.2 63 17.2 100 100 N N/A 30.03 1017 5 8 N/A
8:53 am 08:53 Mostly Cloudy with Fog 64 17.8 64 17.8 100 100 SW 3 6 30.04 1017 5 8 N/A
9:18 am 09:18 Mostly Cloudy with Fog 66 18.9 66 18.9 100 100 SSW 5 7 30.03 1017 0 0 N/A
9:40 am 09:40 Cloudy with Mist and Fog 67 19.4 67 19.4 100 100 N N/A 30.03 1017 1 1 N/A
9:50 am 09:50 Cloudy with Mist and Fog 66 19 66 19 100 100 N N/A 30.03 1017 2 2 N/A
9:53 am 09:53 Mostly Cloudy with Mist and Fog 68 20 68 20 100 100 N N/A 30.05 1018 2 3 N/A
10:03 am 10:03 Partly Cloudy with Mist and Fog 69 20.6 69 20.6 100 100 VRB 5 7 30.03 1017 6 10 N/A
10:24 am 10:24 Sunny 72 22.2 71 21.7 97 97 SSW 6 9 30.03 1017 10 16 N/A
10:53 am 10:53 Mostly Sunny 75 23.9 71 21.7 88 88 SSW 6 9 30.04 1017 10 16 N/A
11:53 am 11:53 Sunny 79 26.1 73 22.8 82 82 SSE 5 7 30.03 1017 10 16 N/A
12:53 pm 12:53 Sunny 81 27.2 72 22.2 74 74 SSW 6 9 30.02 1017 10 16 N/A
1:53 pm 13:53 Mostly Sunny 83 28.3 72 22.2 70 70 SSW 9 15 30.01 1016 10 16 N/A
2:53 pm 14:53 Mostly Cloudy 84 28.9 71 21.7 65 65 VRB 3 6 29.99 1016 10 16 N/A
3:53 pm 15:53 Sunny 83 28.3 69 20.6 63 63 SSE 5 7 29.98 1015 10 16 N/A
4:53 pm 16:53 Partly Cloudy 84 28.9 70 21.1 63 63 S 7 11 29.98 1015 10 16 N/A
5:53 pm 17:53 Mostly Sunny 82 27.8 69 20.6 65 65 SW 7 11 29.98 1015 10 16 N/A
6:53 pm 18:53 Mostly Sunny 79 26.1 71 21.7 77 77 S 5 7 29.98 1015 10 16 N/A
7:53 pm 19:53 Clear 75 23.9 71 21.7 88 88 N N/A 29.99 1016 10 16 N/A
8:53 pm 20:53 Clear 71 21.7 70 21.1 96 96 N N/A 30.00 1016 9 14 N/A
9:53 pm 21:53 Clear 69 20.6 69 20.6 100 100 N N/A 30.01 1016 7 11 N/A
10:53 pm 22:53 Clear with Mist and Fog 67 19.4 67 19.4 100 100 N N/A 30.01 1016 2 3 N/A
11:01 pm 23:01 Clear with Mist and Fog 67 19.4 67 19.4 100 100 N N/A 30.00 1016 1 2 N/A
11:06 pm 23:06 Clear with Mist and Fog 67 19.4 67 19.4 100 100 N N/A 30.00 1016 4 6 N/A
11:22 pm 23:22 Clear with Mist and Fog 68 20 68 20 100 100 N N/A 30.00 1016 2 3 N/A
11:33 pm 23:33 Clear with Mist and Fog 67 19.4 67 19.4 100 100 N N/A 30.00 1016 4 6 N/A
11:36 pm 23:36 Clear with Mist and Fog 67 19.4 67 19.4 100 100 N N/A 30.00 1016 2 2 N/A
11:45 pm 23:45 Clear with Fog 67 19.4 67 19.4 100 100 N N/A 30.00 1016 0 0 N/A
11:53 pm 23:53 Clear with Mist and Fog 67 19.4 67 19.4 100 100 N N/A 30.02 1017 1 1 N/A

Powered by AerisWeather